1301097628692,122.958
1301097688692,122.985
1301097748692,122.859
1301097808692,123.157
1301097868692,122.757
1301097928692,122.829
1301097988692,122.823
1301098048692,122.596
1301098108692,122.627
1301098168692,122.942
1301098228692,122.758
1301098288692,122.770
1301098348692,122.764
1301098408692,122.700
1301098468692,122.710
1301098528692,122.707
1301098588692,122.906
1301098648692,122.743
1301098708692,122.646
1301098768692,122.686
1301098828692,122.749
1301098888692,122.723
1301098948692,122.945
1301099008692,122.825
1301099068692,122.913
1301099128692,122.610
1301099188692,123.027
1301099248692,122.797
1301099308692,122.783
1301099368692,122.665
1301099428692,122.821
1301099488692,122.730
1301099548692,122.769
1301099608692,122.608
1301099668692,122.789
1301099728692,122.451
1301099788692,122.721
1301099848692,122.604
1301099908692,122.626
1301099968692,122.823
1301100028692,122.399
1301100088692,122.566
1301100148692,122.542
1301100208692,122.541
1301100268692,122.664
1301100328692,122.482
1301100388692,122.698
1301100448692,122.524
1301100508692,122.574
1301100568692,122.549
1301100628692,122.711
1301100688692,122.495
1301100748692,122.552
1301100808692,122.399
1301100868692,122.512
1301100928692,122.521
1301100988692,122.480
1301101048692,122.726
1301101108692,123.278
1301101168692,123.063
1301101228705,122.746
1301101288704,122.961
1301101348705,122.706
1301101408705,122.775
1301101468705,122.534
1301101528705,122.602
1301101588705,122.927
1301101648705,122.491
1301101708705,122.412
1301101768705,122.418
1301101828705,122.688
1301101888705,122.425
1301101948705,122.407
1301102008705,122.596
1301102068705,122.414
1301102128705,122.456
1301102188705,122.610
1301102248705,122.477
1301102308705,122.406
1301102368705,122.472
1301102428705,122.484
1301102488705,122.407
1301102548705,122.197
1301102608704,122.710
1301102668704,122.216
1301102728705,122.291
1301102788705,122.474
1301102848705,122.348
1301102908705,122.632
1301102968705,122.399
1301103028705,122.376
1301103088705,122.519
1301103148705,122.344
1301103208705,122.319
1301103268705,122.412
1301103328705,122.466
1301103388705,122.604
1301103448705,122.274
1301103508705,122.473
1301103568705,122.345
1301103628705,122.238
1301103688705,122.409
1301103748705,122.575
1301103808705,122.562
1301103868705,122.396
1301103928705,122.385
1301103988704,122.386
1301104048705,122.115
1301104108705,122.454
1301104168705,122.220
1301104228705,122.391
1301104288705,122.190
1301104348705,122.243
1301104408705,122.258
1301104468705,122.511
1301104528705,122.048
1301104588705,122.222
1301104648705,122.327
1301104708705,122.450
1301104768705,122.322
1301104828717,122.215
1301104888717,122.289
1301104948717,122.314
1301105008717,122.150
1301105068717,122.303
1301105128717,122.329
1301105188717,122.529
1301105248717,122.371
1301105308717,122.344
1301105368717,122.419
1301105428717,122.608
1301105488717,122.632
1301105548717,122.467
1301105608717,122.312
1301105668717,122.571
1301105728717,122.622
1301105788717,122.474
1301105848717,122.543
1301105908717,122.535
1301105968717,122.387
1301106028717,122.558
1301106088717,122.375
1301106148717,122.566
1301106208717,122.609
1301106268717,122.652
1301106328717,122.497
1301106388717,122.717
1301106448717,122.389
1301106508717,122.554
1301106568717,122.578
1301106628717,122.604
1301106688717,122.346
1301106748717,122.661
1301106808717,122.511
1301106868717,122.381
1301106928717,122.594
1301106988717,122.522
1301107048717,122.316
1301107108717,122.262
1301107168717,122.648
1301107228717,122.404
1301107288717,122.505
1301107348717,122.214
1301107408717,122.218
1301107468717,122.474
1301107528717,122.757
1301107588717,122.556
1301107648717,122.594
1301107708717,122.473
1301107768717,122.560
1301107828717,122.371
1301107888717,122.577
1301107948717,122.432
1301108008717,122.408
1301108068717,122.397
1301108128717,122.357
1301108188717,122.707
1301108248717,122.384
1301108308717,122.346
1301108368717,122.503
1301108428729,122.658
1301108488729,122.514
1301108548729,122.312
1301108608729,122.636
1301108668729,122.541
1301108728729,122.951
1301108788729,122.683
1301108848729,122.686
1301108908729,122.494
1301108968729,122.724
1301109028729,122.637
1301109088729,122.496
1301109148729,122.342
1301109208729,122.481
1301109268729,122.623
1301109328729,122.333
1301109388729,122.334
1301109448729,122.414
1301109508729,122.498
1301109568729,122.617
1301109628729,122.524
1301109688729,122.631
1301109748729,122.516
1301109808729,122.694
1301109868729,122.610
1301109928729,122.772
1301109988729,122.918
1301110048729,122.781
1301110108729,122.873
1301110168729,122.742
1301110228729,122.770
1301110288729,122.758
1301110348729,122.870
1301110408729,122.797
1301110468729,122.890
1301110528729,123.065
1301110588729,122.947
1301110648729,122.826
1301110708729,122.910
1301110768729,123.004
1301110828729,122.810
1301110888729,122.882
1301110948729,123.164
1301111008729,122.895
1301111068729,122.912
1301111128729,123.041
1301111188729,122.848
1301111248729,122.897
1301111308729,123.262
1301111368729,122.835
1301111428729,123.031
1301111488729,122.921
1301111548729,122.779
1301111608729,123.113
1301111668729,122.648
1301111728729,123.112
1301111788729,122.999
1301111848729,122.875
1301111908729,123.188
1301111968729,122.916
1301112028740,122.926
1301112088740,122.876
1301112148740,122.847
1301112208740,122.877
1301112268740,122.847
1301112328740,122.735
1301112388740,122.404
1301112448740,122.565
1301112508740,122.615
1301112568740,122.578
1301112628740,122.275
1301112688740,122.740
1301112748741,122.578
1301112808741,122.547
1301112868740,122.470
1301112928740,122.725
1301112988740,122.443
1301113048740,122.731
1301113108740,122.405
1301113168740,122.178
1301113228740,122.323
1301113288740,122.550
1301113348740,122.570
1301113408740,122.379
1301113468740,122.521
1301113528740,122.328
1301113588740,122.598
1301113648740,122.247
1301113708740,122.235
1301113768740,122.441
1301113828740,122.333
1301113888740,122.239
1301113948740,122.524
1301114008740,122.198
1301114068740,122.401
1301114128741,122.240
1301114188741,122.125
1301114248740,122.126
1301114308740,121.915
1301114368740,122.400
1301114428740,122.192
1301114488740,122.277
1301114548740,122.243
1301114608740,122.361
1301114668740,122.134
1301114728740,122.181
1301114788740,122.126
1301114848740,122.125
1301114908740,122.161
1301114968740,122.251
1301115028740,122.336
1301115088740,121.919
1301115148740,122.334
1301115208740,122.323
1301115268740,122.175
1301115328740,122.244
1301115388740,122.312
1301115448741,122.185
1301115508741,122.410
1301115568740,122.375
1301115628752,122.614
1301115688752,122.563
1301115748752,122.618
1301115808752,122.393
1301115868752,122.365
1301115928752,122.503
1301115988752,122.371
1301116048752,122.524
1301116108752,122.444
1301116168752,122.624
1301116228752,122.594
1301116288752,122.448
1301116348752,122.774
1301116408752,122.508
1301116468752,122.364
1301116528752,122.620
1301116588752,122.525
1301116648752,122.344
1301116708752,122.473
1301116768752,122.448
1301116828752,122.358
1301116888752,122.460
1301116948752,122.318
1301117008752,122.318
1301117068752,122.071
1301117128752,121.824
1301117188752,121.882
1301117248752,121.931
1301117308752,121.862
1301117368752,121.735
1301117428752,121.646
1301117488752,121.694
1301117548752,121.566
1301117608752,121.634
1301117668752,121.530
1301117728752,121.447
1301117788752,121.457
1301117848752,121.465
1301117908752,121.059
1301117968752,121.492
1301118028752,121.014
1301118088752,121.355
1301118148752,121.503
1301118208752,121.127
1301118268752,121.029
1301118328752,121.095
1301118388752,120.872
1301118448752,121.306
1301118508752,121.256
1301118568752,121.078
1301118628752,121.277
1301118688752,121.267
1301118748752,121.339
1301118808752,121.384
1301118868752,120.939
1301118928752,121.159
1301118988752,121.106
1301119048752,121.188
1301119108752,120.960
1301119168752,121.182
1301119228764,121.277
1301119288764,121.027
1301119348764,121.127
1301119408764,121.139
1301119468764,120.995
1301119528764,121.032
1301119588764,120.959
1301119648764,120.954
1301119708764,120.801
1301119768764,120.999
1301119828764,121.254
1301119888764,121.206
1301119948764,121.218
1301120008764,121.039
1301120068764,120.587
1301133088797,124.232
1301133148797,124.964
1301133208797,124.983
1301133268797,124.817
1301133328797,124.903
1301133388797,124.923
1301133448797,125.138
1301133508797,124.997
1301133568797,124.867
1301133628808,125.127
1301133688808,124.846
1301133748808,125.186
1301133808808,124.902
1301133868808,124.908
1301133928808,124.865
1301133988808,125.053
1301134048808,124.929
1301134108808,124.904
1301134168808,124.943
1301134228808,124.534
1301134288808,125.085
1301134348808,125.088
1301134408808,124.777
1301134468808,124.708
1301134528808,125.102
1301134588808,124.996
1301134648808,124.829
1301134708808,124.849
1301134768808,124.873
1301134828808,124.930
1301134888808,124.725
1301134948808,125.182
1301135008808,124.860
1301135068808,124.881
1301135128808,124.788
1301135188808,124.945
1301135248808,124.943
1301135308808,124.857
1301135368808,124.878
1301135428808,124.943
1301135488808,124.569
1301135548808,124.918
1301135608808,124.879
1301135668808,125.000
1301135728808,124.974
1301135788808,124.658
1301135848808,124.565
1301135908808,125.025
1301135968808,124.617
1301136028808,124.896
1301136088808,124.455
1301136148808,124.895
1301136208808,124.698
1301136268808,125.064
1301136328808,124.992
1301136388808,125.091
1301136448808,124.874
1301136508808,124.721
1301136568808,124.471
1301136628808,124.727
1301136688808,125.033
1301136748808,125.005
1301136808808,124.964
1301136868808,124.807
1301136928808,124.790
1301136988808,124.699
1301137048808,124.585
1301137108808,124.803
1301137168808,125.050
1301137228820,124.676
1301137288820,124.915
1301137348820,124.850
1301137408820,124.868
1301137468820,124.724
1301137528820,125.070
1301137588820,124.702
1301137648820,124.745
1301137708820,124.732
1301137768820,124.761
1301137828820,124.629
1301137888820,124.279
1301138428820,124.615
1301138488820,124.288
1301138548820,124.660
1301138608820,124.518
1301138668820,124.442
1301138728820,124.271
1301138788820,124.422
1301138848820,124.597
1301138908820,124.471
1301138968820,124.461
1301139028820,124.393
1301139088820,124.293
1301139148820,124.358
1301139208820,124.702
1301139268820,124.570
1301139328820,124.472
1301139388820,124.408
1301139448820,124.584
1301139508820,124.736
1301139568820,124.350
1301139628820,124.451
1301139688820,124.608
1301139748820,124.551
1301139808820,124.685
1301139868820,124.562
1301139928820,124.665
1301139988820,124.902
1301140048820,124.529
1301140108820,124.770
1301140168820,124.861
1301140228820,124.924
1301140288820,124.864
1301140348820,124.681
1301140408820,124.797
1301140468820,124.788
1301140528820,124.743
1301140588820,125.151
1301140648820,124.903
1301140708820,124.925
1301140768820,125.050
1301140828832,124.840
1301140888832,124.799
1301140948832,124.717
1301141008832,125.014
1301141068832,125.029
1301141128832,124.852
1301141188832,124.992
1301141248832,125.075
1301141308832,125.276
1301141368832,125.107
1301141428832,125.092
1301141488832,125.297
1301141548832,125.110
1301141608832,125.177
1301141668832,125.273
1301141728832,125.170
1301141788832,125.073
1301141848832,125.115
1301141908832,125.017
1301141968832,125.437
1301142028832,125.198
1301142088832,125.118
1301142148832,125.108
1301142208832,125.282
1301142268832,124.961
1301142328832,125.297
1301142388832,125.259
1301142448832,125.333
1301142508832,125.229
1301142568832,125.203
1301142628832,125.181
1301142688832,124.949
1301142748832,125.184
1301142808832,124.948
1301142868832,125.386
1301142928832,125.393
1301142988832,125.181
1301143048832,125.305
1301143108832,125.452
1301143168832,125.322
1301143228832,125.410
1301143288832,125.380
1301143348832,125.720
1301143408832,125.502
1301143468832,125.543
1301143528832,125.622
1301143588832,125.758
1301143648832,125.502
1301143708832,125.814
1301143768832,125.574
1301143828832,125.461
1301143888832,125.597
1301143948832,125.513
1301144008832,125.793
1301144068832,125.559
1301144128832,125.733
1301144188832,125.750
1301144248832,125.621
1301144308832,125.412
1301144368832,125.599
1301144428844,125.600
1301144488844,125.521
1301144548844,125.723
1301144608844,125.482
1301144668844,125.501
1301144728844,125.402
1301144788844,125.442
1301144848844,125.440
1301144908844,125.410
1301144968844,125.423
1301145028844,125.682
1301145088844,125.493
1301145148844,125.533
1301145208844,125.577
1301145268844,125.387
1301145328844,125.474
1301145388844,125.576
1301145448844,125.729
1301145508844,125.625
1301145568844,125.797
1301145628844,125.614
1301145688844,125.504
1301145748844,125.546
1301145808844,125.456
1301145868844,125.588
1301145928844,125.499
1301145988844,125.464
1301146048844,125.699
1301146108844,125.600
1301146168844,125.622
1301146228844,125.498
1301146288844,125.707
1301146348844,125.718
1301146408844,125.832
1301146468844,125.816
1301146528844,125.688
1301146588844,125.648
1301146648844,125.822
1301146708844,125.572
1301146768844,125.706
1301146828844,125.458
1301146888844,125.595
1301146948844,125.779
1301147008844,125.549
1301147068844,125.775
1301147128844,125.676
1301147188844,125.763
1301147248844,125.801
1301147308844,125.816
1301147368844,125.586
1301147428844,125.500
1301147488844,125.651
1301147548844,125.931
1301147608844,125.760
1301147668844,125.758
1301147728844,125.833
1301147788844,125.899
1301147848844,125.923
1301147908844,125.995
1301147968844,125.904
1301148028856,126.088
1301148088856,125.988
1301148148856,125.934
1301148208856,125.793
1301148268856,125.712
1301148328856,125.755
1301148388856,126.206
1301148448856,126.206
1301148508856,125.890
1301148568856,125.830
1301148628856,126.114
1301148688856,125.913
1301148748856,125.696
1301148808856,126.156
1301148868856,126.054
1301148928856,126.027
1301148988856,126.033
1301149048856,126.079
1301149108856,125.911
1301149168856,125.939
1301149228856,125.907
1301149288856,126.225
1301149348856,125.878
1301149408856,126.198
1301149468856,126.320
1301149528856,126.304
1301149588856,126.192
1301149648856,126.229
1301149708856,126.410
1301149768856,126.078
1301149828856,126.145
1301149888856,126.304
1301149948856,126.471
1301150008856,126.260
1301150068856,126.466
1301150128856,126.448
1301150188856,126.502
1301150248856,126.659
1301150308856,126.658
1301150368856,126.405
1301150428856,126.383
1301150488856,126.717
1301150548856,126.775
1301150608856,126.599
1301150668856,126.891
1301150728856,126.778
1301150788856,126.787
1301150848856,126.978
1301150908856,126.778
1301150968856,126.631
1301151028856,126.724
1301151088856,126.609
1301151148856,126.740
1301151208856,126.546
1301151268856,126.672
1301151328856,126.971
1301151388856,126.792
1301151448856,126.565
1301151508856,126.843
1301151568856,126.503
1301151628868,126.855
1301151688868,126.797
1301151748868,126.942
1301151808868,126.811
1301151868868,126.759
1301151928868,126.934
1301151988868,126.783
1301152048868,126.938
1301152108868,126.785
1301152168868,126.831
1301152228868,126.697
1301152288868,126.716
1301152348868,127.075
1301152408868,126.877
1301152468868,126.574
1301152528868,126.668
1301152588868,126.624
1301152648868,126.936
1301152708868,127.096
1301152768868,126.775
1301152828868,126.708
1301152888868,126.707
1301152948868,126.760
1301153008868,126.821
1301153068868,126.658
1301153128868,126.730
1301153188868,126.761
1301153248868,126.423
1301153308868,126.557
1301153368868,126.272
1301153428868,126.771
1301153488868,126.464
1301153548868,126.548
1301153608868,126.391
1301153668868,126.530
1301153728868,126.343
1301153788868,126.399
1301153848868,126.422
1301153908868,126.332
1301153968868,126.518
1301154028868,126.649
1301154088868,126.539
1301154148868,126.469
1301154208868,126.376
1301154268868,126.399
1301154328868,126.258
1301154388868,126.417
1301154448868,126.300
1301154508868,126.303
1301154568868,126.213
1301154628868,126.172
1301154688868,126.583
1301154748868,126.246
1301154808868,126.106
1301154868868,126.171
1301154928868,126.316
1301154988868,126.345
1301155048868,126.395
1301155108868,126.354
1301155168868,126.223
1301155228879,126.311
1301155288879,126.311
1301155348879,126.239
1301155408879,126.283
1301155468879,126.551
1301155528879,126.352
1301155588879,126.461
1301155648879,125.997
1301155708879,126.589
1301155768879,126.448
1301155828879,126.476
1301155888879,126.415
1301155948879,126.329
1301156008879,126.328
1301156068879,126.511
1301156128879,126.500
1301156188879,126.487
1301156248879,126.669
1301156308879,126.539
1301156368879,126.531
1301156428879,126.362
1301156488879,126.491
1301156548879,126.548
1301156608879,126.667
1301156668879,126.521
1301156728879,126.319
1301156788879,126.456
1301156848879,126.464
1301156908879,126.444
1301156968879,126.477
1301157028879,126.429
1301157088879,126.627
1301157148879,126.686
1301157208879,126.620
1301157268879,126.509
1301157328879,126.412
1301157388879,126.483
1301157448879,126.691
1301157508879,126.517
1301157568879,126.303
1301157628879,126.340
1301157688879,126.265
1301157748879,126.199
1301157808879,126.506
1301157868879,126.461
1301157928879,126.758
1301157988879,126.443
1301158048879,126.230
1301158108879,126.453
1301158168879,126.508
1301158228879,126.212
1301158288879,126.186
1301158348879,126.652
1301158408879,126.362
1301158468879,126.527
1301158528879,126.466
1301158588879,126.332
1301158648879,126.169
1301158708879,126.738
1301158768879,126.355
1301158828891,126.770
1301158888891,126.355
1301158948891,126.550
1301159008891,126.486
1301159068891,126.435
1301159128891,126.378
1301159188891,126.550
1301159248891,126.289
1301159308891,126.359
1301159368891,126.580
1301159428891,126.402
1301159488891,126.528
1301159548891,126.526
1301159608891,126.630
1301159668891,126.614
1301159728891,126.329
1301159788891,126.407
1301159848891,126.744
1301159908891,126.425
1301159968891,126.739
1301160028891,126.635
1301160088891,126.522
1301160148891,126.589
1301160208891,126.429
1301160268891,126.522
1301160328891,126.333
1301160388891,126.548
1301160448891,126.411
1301160508891,126.247
1301160568891,126.423
1301160628891,126.325
1301160688891,126.154
1301160748891,126.455
1301160808891,126.879
1301160868891,126.611
1301160928891,126.424
1301160988891,126.423
1301161048891,126.771
1301161108891,126.688
1301161168891,126.839
1301161228891,126.571
1301161288891,126.585
1301161348891,126.461
1301161408891,126.290
1301161468891,126.180
1301161528891,126.259
1301161588891,126.535
1301161648891,126.418
1301161708891,126.586
1301161768891,126.217
1301161828891,126.346
1301161888891,126.718
1301161948891,126.325
1301162008891,126.380
1301162068891,126.275
1301162128891,126.378
1301162188891,126.590
1301162248891,126.269
1301162308891,126.477
1301162368891,126.345
1301162428903,126.405
1301162488903,126.592
1301162548903,126.717
1301162608903,126.755
1301162668903,126.512
1301162728903,126.595
1301162788903,126.284
1301162848903,126.311
1301162908903,126.385
1301162968903,126.249
1301163028903,126.575
1301163088903,126.492
1301163148903,126.246
1301163208903,126.468
1301163268903,126.278
1301163328903,126.120
1301163388903,126.391
1301163448903,126.183
1301163508903,126.068
1301163568903,126.206
1301163628903,126.258
1301163688903,126.301
1301163748903,126.207
1301163808903,126.085
1301163868903,126.066
1301163928903,126.289
1301163988903,126.138
1301164048903,125.954
1301164108903,126.144
1301164168903,126.011
1301164228903,126.424
1301164288903,126.040
1301164348903,126.025
1301164408903,126.037
1301164468903,126.092
1301164528903,126.016
1301164588903,125.611
1301164648903,126.071
1301164708903,126.137
1301164768903,125.809
1301164828903,125.740
1301164888903,126.009
1301164948903,125.834
1301165008903,125.600
1301165068903,125.817
1301165128903,126.031
1301165188903,125.644
1301165248903,125.769
1301165308903,125.597
1301165368903,125.691
1301165428903,125.547
1301165488903,125.580
1301165548903,125.412
1301165608903,125.598
1301165668903,125.805
1301165728903,125.381
1301165788903,125.574
1301165848903,125.392
1301165908903,125.547
1301165968903,125.546
1301166028914,125.309
1301166088914,125.404
1301166148914,125.388
1301166208914,125.207
1301166268914,125.299
1301166328914,125.229
1301166388914,125.416
1301166448914,125.378
1301166508914,125.292
1301166568914,125.738
1301166628914,125.677
1301166688914,125.239
1301166748914,125.176
1301166808914,125.387
1301166868914,125.110
1301166928914,125.663
1301166988914,125.365
1301167048914,125.379
1301167108914,125.411
1301167168914,125.127
1301167228914,125.429
1301167288914,125.378
1301167348914,125.270
1301167408914,125.307
1301167468914,125.173
1301167528914,125.064
1301167588914,125.293
1301167648914,125.325
1301167708914,125.380
1301167768914,125.209
1301167828914,125.074
1301167888914,125.277
1301167948914,125.303
1301168008914,125.337
1301168068914,125.032
1301168128914,125.146
1301168188914,125.185
1301168248914,124.971
1301168308914,125.072
1301168368914,124.833
1301168428914,125.197
1301168488914,125.214
1301168548914,125.308
1301168608914,124.987
1301168668914,125.111
1301168728914,124.940
1301168788914,125.266
1301168848914,125.002
1301168908914,125.086
1301168968914,124.912
1301169028914,125.216
1301169088914,125.125
1301169148914,125.023
1301169208914,125.069
1301169268914,124.889
1301169328914,124.963
1301169388914,124.930
1301169448914,124.632
1301169508914,124.942
1301169568914,124.822
1301169628926,124.665
1301169688926,124.839
1301169748926,124.787
1301169808926,124.888
1301169868926,124.917
1301169928926,124.858
1301169988926,124.637
1301170048926,124.878
1301170108926,124.653
1301170168926,124.697
1301170228926,124.787
1301170288926,124.667
1301170348926,124.745
1301170408926,124.784
1301170468926,124.804
1301170528926,124.675
1301170588926,124.675
1301170648926,124.987
1301170708926,124.832
1301170768926,124.633
1301170828926,124.863
1301170888926,124.753
1301170948926,125.073
1301171008926,124.752
1301171068926,124.924
1301171128926,124.971
1301171188926,124.746
1301171248926,124.791
1301171308926,124.618
1301171368926,124.719
1301171428926,124.638
1301171488926,124.690
1301171548926,125.153
1301171608926,124.811
1301171668926,124.890
1301171728926,124.903
1301171788926,125.205
1301171848926,125.086
1301171908926,125.275
1301171968926,124.900
1301172028926,124.793
1301172088926,125.055
1301172148926,124.832
1301172208926,124.642
1301172268926,124.999
1301172328926,124.536
1301172388926,124.632
1301172448926,124.857
1301172508926,124.608
1301172568926,124.640
1301172628926,124.825
1301172688926,124.722
1301172748926,124.899
1301172808926,124.906
1301172868926,124.739
1301172928926,125.058
1301172988926,124.846
1301173048926,124.614
1301173108926,124.912
1301173168926,124.836
1301173228938,124.996
1301173288938,124.760
1301173348938,125.162
1301173408938,124.996
1301173468938,125.156
1301173528938,125.248
1301173588938,125.123
1301173648938,124.880
1301173708938,125.229
1301173768938,125.222
1301173828938,125.105
1301173888938,125.052
1301173948938,124.995
1301174008938,124.736
1301174068938,125.077
1301174128938,124.830
1301174188938,124.899
1301174248938,125.045
1301174308938,125.385
1301174368938,125.480
1301174428938,124.704
1301174488938,125.054
1301174548938,124.912
1301174608938,124.741
1301174668938,124.671
1301174728938,124.918
1301174788938,124.886
1301174848938,124.813
1301174908938,124.976
1301174968938,125.132
1301175028938,124.699
1301175088938,125.051
1301175148938,125.104
1301175208938,125.383
1301175268938,124.968
1301175328938,125.033
1301175388938,124.993
1301175448938,125.111
1301175508938,125.330
1301175568938,124.964
1301175628938,124.825
1301175688938,125.341
1301175748938,124.981
1301175808938,125.159
1301175868938,125.313
1301175928938,125.012
1301175988938,125.112
1301176048938,125.138
1301176108938,125.205
1301176168938,125.118
1301176228938,125.179
1301176288938,125.156
1301176348938,125.090
1301176408938,124.981